FW1194 Weather Reports


time (UTC)temp
F
wind
direction
speed
knots
gust
knots
rain 1hr
in
rain 24hr
in
rain mn
in
humidity
%
barometer
mb
20260506233216 52 270 8.7 13.9 0.00 0.00 0.00 39 1012.6
20260506232237 53 293 10.4 18.2 0.00 0.00 0.00 38 1012.5
20260506231217 53 270 8.7 14.8 0.00 0.00 0.00 38 1012.5
20260506230257 53 270 11.3 16.5 0.00 0.00 0.00 38 1012.5
20260506225216 54 270 12.2 16.5 0.00 0.00 0.00 37 1012.2
20260506224216 54 270 13.0 16.5 0.00 0.00 0.00 38 1012.3
20260506223237 54 248 7.8 10.4 0.00 0.00 0.00 39 1012.2
20260506222216 54 270 8.7 13.0 0.00 0.00 0.00 38 1012.1
20260506221216 54 248 7.8 13.0 0.00 0.00 0.00 38 1012.2
20260506220217 54 270 7.0 8.7 0.00 0.00 0.00 37 1012.1
20260506215216 55 270 10.4 15.6 0.00 0.00 0.00 38 1011.9
20260506214217 54 248 10.4 15.6 0.00 0.00 0.00 38 1011.9
20260506213216 56 248 13.9 20.9 0.00 0.00 0.00 37 1012.0
20260506212217 56 293 11.3 13.9 0.00 0.00 0.00 37 1011.9
20260506211216 56 248 12.2 16.5 0.00 0.00 0.00 36 1011.8
20260506210216 56 0 10.4 15.6 0.00 0.00 0.00 35 1011.8
20260506205216 56 248 7.0 13.9 0.00 0.00 0.00 38 1011.8
20260506204237 57 270 7.8 11.3 0.00 0.00 0.00 36 1011.9
20260506203216 56 248 7.0 13.9 0.00 0.00 0.00 37 1011.9
20260506202216 57 248 8.7 14.8 0.00 0.00 0.00 34 1012.0
20260506201236 59 270 11.3 15.6 0.00 0.00 0.00 32 1012.1
20260506200216 57 248 10.4 13.9 0.00 0.00 0.00 33 1012.3
20260506195236 56 203 9.6 13.9 0.00 0.00 0.00 34 1012.3
20260506194256 56 248 11.3 17.4 0.00 0.00 0.00 32 1012.4
20260506193216 57 248 7.8 11.3 0.00 0.00 0.00 32 1012.5
20260506192216 57 270 8.7 13.9 0.00 0.00 0.00 33 1012.6
20260506191216 57 225 9.6 13.9 0.00 0.00 0.00 34 1012.6
20260506190216 57 270 10.4 16.5 0.00 0.00 0.00 36 1012.6
20260506185216 56 248 10.4 15.6 0.00 0.00 0.00 38 1012.7
20260506184216 55 248 10.4 13.9 0.00 0.00 0.00 37 1012.8
20260506183216 55 270 7.0 10.4 0.00 0.00 0.00 37 1012.7
20260506182216 55 248 8.7 12.2 0.00 0.00 0.00 36 1012.7
20260506181216 55 270 5.2 11.3 0.00 0.00 0.00 36 1012.6
20260506180216 56 248 7.0 12.2 0.00 0.00 0.00 36 1012.7
20260506175216 55 225 7.0 11.3 0.00 0.00 0.00 38 1012.6
20260506174216 55 225 10.4 16.5 0.00 0.00 0.00 37 1012.9
20260506173216 54 248 10.4 13.0 0.00 0.00 0.00 38 1012.8
20260506172236 54 270 7.8 12.2 0.00 0.00 0.00 36 1012.8
20260506171216 54 203 7.8 10.4 0.00 0.00 0.00 38 1013.1
20260506170236 55 270 10.4 17.4 0.00 0.00 0.00 37 1013.1
20260506165216 54 293 7.8 13.0 0.00 0.00 0.00 38 1013.2
20260506164236 54 270 8.7 15.6 0.00 0.00 0.00 39 1013.2
20260506163216 54 248 7.0 9.6 0.00 0.00 0.00 36 1013.1
20260506162215 55 270 5.2 8.7 0.00 0.00 0.00 36 1013.2
20260506161216 55 225 8.7 12.2 0.00 0.00 0.00 37 1013.2
20260506160215 55 248 10.4 13.0 0.00 0.00 0.00 39 1013.1
20260506155215 53 225 7.0 9.6 0.00 0.00 0.00 40 1013.2
20260506154218 53 270 9.6 12.2 0.00 0.00 0.00 39 1013.1
20260506153218 54 270 7.0 9.6 0.00 0.00 0.00 37 1013.0
20260506152218 55 248 4.3 7.0 0.00 0.00 0.00 39 1013.2
20260506151217 55 270 7.8 10.4 0.00 0.00 0.00 39 1013.2
20260506150238 54 248 4.3 8.7 0.00 0.00 0.00 39 1013.2
20260506145218 53 225 4.3 5.2 0.00 0.00 0.00 42 1013.2
20260506144217 52 248 6.1 8.7 0.00 0.00 0.00 40 1013.3
20260506143218 53 270 2.6 6.1 0.00 0.00 0.00 39 1013.3
20260506142218 53 293 2.6 5.2 0.00 0.00 0.00 39 1013.2
20260506141218 53 203 4.3 7.0 0.00 0.00 0.00 43 1013.2
20260506140217 52 225 2.6 3.5 0.00 0.00 0.00 46 1013.2
20260506135217 51 203 2.6 3.5 0.00 0.00 0.00 44 1013.0
20260506134218 50 203 4.3 5.2 0.00 0.00 0.00 48 1012.8
20260506133217 50 203 2.6 3.5 0.00 0.00 0.00 53 1012.6
20260506132217 50 203 1.7 2.6 0.00 0.00 0.00 54 1012.5
20260506131217 49 203 1.7 2.6 0.00 0.00 0.00 60 1012.4
20260506130218 47 158 1.7 2.6 0.00 0.00 0.00 64 1012.4
20260506125217 46 203 0.9 1.7 0.00 0.00 0.00 70 1012.3
20260506124217 44 0.0 0.9 0.00 0.00 0.00 76 1012.2
20260506123217 43 293 0.9 1.7 0.00 0.00 0.00 77 1012.0
20260506122217 42 338 0.9 1.7 0.00 0.00 0.00 79 1011.8
20260506121217 41 0.0 0.0 0.00 0.00 0.00 80 1011.5
20260506120217 40 0.0 0.9 0.00 0.00 0.00 80 1011.6
20260506115217 40 0.0 0.9 0.00 0.00 0.00 80 1011.5
20260506114217 39 0.0 0.9 0.00 0.00 0.00 81 1011.4
20260506113217 38 0.0 0.0 0.00 0.00 0.00 80 1011.3
20260506112318 38 0.0 0.9 0.00 0.00 0.00 79 1011.2
20260506111217 38 0.0 0.0 0.00 0.00 0.00 79 1011.2
20260506110217 39 0.0 0.9 0.00 0.00 0.00 79 1011.3
20260506105237 39 0.0 0.9 0.00 0.00 0.00 79 1011.1
20260506104217 39 45 0.9 1.7 0.00 0.00 0.00 78 1010.9
20260506103217 39 45 0.9 0.9 0.00 0.00 0.00 77 1010.7
20260506102217 39 0.0 0.9 0.00 0.00 0.00 75 1010.5
20260506101217 40 0.0 0.0 0.00 0.00 0.00 74 1010.4
20260506100217 40 0.0 0.0 0.00 0.00 0.00 75 1010.4
20260506095258 40 0.0 0.0 0.00 0.00 0.00 74 1010.5
20260506094217 40 0.0 0.0 0.00 0.00 0.00 73 1010.4
20260506093217 40 0.0 0.0 0.00 0.00 0.00 72 1010.4
20260506092237 40 0.0 0.9 0.00 0.00 0.00 71 1010.4
20260506091217 40 45 0.9 0.9 0.00 0.00 0.00 71 1010.3
20260506090257 40 0.0 0.0 0.00 0.00 0.00 70 1010.5
20260506085217 40 0.0 0.0 0.00 0.00 0.00 68 1010.5
20260506084217 40 0.0 0.9 0.00 0.00 0.00 66 1010.3
20260506083218 41 0.0 0.0 0.00 0.00 0.00 65 1010.1
20260506082217 41 0.0 0.0 0.00 0.00 0.00 65 1010.2
20260506081237 42 0.0 0.0 0.00 0.00 0.00 64 1010.1
20260506080217 43 0.0 0.0 0.00 0.00 0.00 60 1010.2
20260506073216 44 23 0.9 2.6 0.00 0.00 0.00 55 1010.2
20260506072217 45 68 0.9 1.7 0.00 0.00 0.00 54 1009.9
20260506071217 45 45 0.9 2.6 0.00 0.00 0.00 53 1009.8
20260506070217 45 23 0.9 0.9 0.00 0.00 0.00 52 1009.8
20260506062216 47 0 1.7 1.7 0.00 0.00 0.00 49 1010.1
20260506061217 47 0 1.7 3.5 0.00 0.00 0.00 49 1010.0
20260506060217 47 23 1.7 1.7 0.00 0.00 0.00 49 1009.9
20260506051216 49 315 1.7 1.7 0.00 0.00 0.00 48 1009.5
20260506050216 50 0 0.9 1.7 0.00 0.00 0.00 47 1009.5
20260506044258 50 315 1.7 3.5 0.00 0.00 0.00 45 1009.3
20260506043217 51 338 2.6 3.5 0.00 0.00 0.00 45 1009.5
20260506042238 51 293 1.7 4.3 0.00 0.00 0.00 44 1009.5
20260506041238 51 338 0.9 1.7 0.00 0.00 0.00 43 1009.5
20260506040217 51 0 1.7 3.5 0.00 0.00 0.00 44 1009.5
20260506035217 51 23 2.6 4.3 0.00 0.00 0.00 43 1009.1
20260506034217 51 315 2.6 6.1 0.00 0.00 0.00 43 1009.2
20260506033217 51 0 1.7 7.0 0.00 0.00 0.00 43 1009.1
20260506032217 51 315 4.3 7.0 0.00 0.00 0.00 44 1008.8
20260506031217 51 338 2.6 6.1 0.00 0.00 0.00 48 1008.7
20260506030217 51 293 0.9 1.7 0.00 0.00 0.00 46 1008.7
20260506025217 51 0.0 0.9 0.00 0.00 0.00 45 1008.5
20260506024217 52 270 0.9 0.9 0.00 0.00 0.00 45 1008.7
20260506023217 52 270 0.9 1.7 0.00 0.00 0.00 44 1008.7
20260506022217 52 315 0.9 0.9 0.00 0.00 0.00 43 1008.3
20260506021217 52 293 1.7 1.7 0.00 0.00 0.00 42 1008.3
20260506020217 52 293 1.7 2.6 0.00 0.00 0.00 42 1008.1
20260506015217 53 315 1.7 2.6 0.00 0.00 0.00 41 1007.9
20260506014217 53 293 0.9 0.9 0.00 0.00 0.00 41 1007.9
20260506013217 53 270 1.7 1.7 0.00 0.00 0.00 40 1007.6
20260506012217 53 315 0.9 1.7 0.00 0.00 0.00 39 1007.5
20260506011217 54 293 2.6 4.3 0.00 0.00 0.00 39 1007.5
20260506010217 54 315 4.3 7.0 0.00 0.00 0.00 38 1007.3
20260506005217 54 270 3.5 9.6 0.00 0.00 0.00 38 1007.1
20260506004217 54 270 1.7 4.3 0.00 0.00 0.00 38 1007.2
20260506003217 54 293 4.3 9.6 0.00 0.00 0.00 38 1006.9
20260506002217 54 293 0.9 1.7 0.00 0.00 0.00 38 1006.9
20260506001217 55 293 2.6 3.5 0.00 0.00 0.00 37 1007.0
20260506000219 55 270 1.7 3.5 0.00 0.00 0.00 38 1007.1
20260505235217 55 293 0.9 1.7 0.00 0.10 0.00 37 1006.9
20260505234217 55 338 3.5 7.0 0.00 0.10 0.00 36 1007.0